Weather History for KHYA - October, 2012

Change the Weather History Date:

Sunday, October 14, 2012

  Actual Average Record
Temperature  
Mean Temperature 57 °F -  
Max Temperature 64 °F 62 °F 78 °F (1954)
Min Temperature 50 °F 44 °F 25 °F (1953)
Degree Days  
Heating Degree Days 8    
Growing Degree Days 7 (Base 50)    
Moisture  
Dew Point 53 °F    
Average Humidity 77    
Maximum Humidity 90    
Minimum Humidity 64    
Precipitation  
Precipitation 0.00 in - - ()
Sea Level Pressure  
Sea Level Pressure 30.13 in    
Wind  
Wind Speed 15 mph (SW)    
Max Wind Speed 28 mph    
Max Gust Speed 39 mph    
Visibility 10 miles    
Events Rain    
Averages and records for this station are not official NWS values.
T = Trace of Precipitation, MM = Missing Value Source: NWS Daily Summary

Daily Weather History Graph

Daily Weather History Graph

Search for Another Location

Airport or City:

Trip Planner

Search our weather history database for the weather conditions in past years. The results will help you decide how hot, cold, wet, or windy it might be!

Date:

Astronomy

Oct. 14, 2012 Rise Set
Actual Time 6:52 AM EDT 6:00 PM EDT
Civil Twilight 6:24 AM EDT 6:28 PM EDT
Nautical Twilight 5:52 AM EDT 7:00 PM EDT
Astronomical Twilight 5:20 AM EDT 7:32 PM EDT
Moon 5:47 AM EDT (10/14) 5:18 PM EDT (10/14)
Length of Visible Light 12h 04m
Length of Day
11h 08m
Waning Crescent, 1% of the Moon is Illuminated
Oct 14
Waning Crescent
Oct 15
New
Oct 21
First Quarter
Oct 29
Full
Nov 6
Last Quarter

Hourly Weather History & Observations

Time (EDT) Temp. Dew Point Humidity Pressure Visibility Wind Dir Wind Speed Gust Speed Precip Events Conditions
1:56 AM 50.0 °F 39.0 °F 66% 30.32 in 10.0 mi SW 11.5 mph 17.3 mph N/A   Partly Cloudy
2:56 AM 51.1 °F 41.0 °F 68% 30.30 in 10.0 mi SSW 5.8 mph - N/A   Mostly Cloudy
3:56 AM 54.0 °F 42.1 °F 64% 30.25 in 10.0 mi SSW 11.5 mph 17.3 mph N/A   Clear
4:56 AM 55.0 °F 44.1 °F 67% 30.26 in 10.0 mi SSW 15.0 mph 20.7 mph 0.00 in   Mostly Cloudy
5:56 AM 55.9 °F 45.0 °F 67% 30.22 in 10.0 mi SSW 15.0 mph 21.9 mph N/A   Overcast
7:56 AM 57.9 °F 51.1 °F 78% 30.21 in 10.0 mi SSW 11.5 mph - 0.00 in   Overcast
8:56 AM 59.0 °F 52.0 °F 78% 30.17 in 10.0 mi SSW 16.1 mph 28.8 mph 0.00 in Rain Light Rain
9:56 AM 59.0 °F 53.1 °F 81% 30.16 in 10.0 mi SW 18.4 mph 31.1 mph 0.00 in Rain Light Rain
10:56 AM 60.1 °F 52.0 °F 75% 30.14 in 10.0 mi SW 25.3 mph 35.7 mph 0.00 in   Overcast
11:56 AM 62.1 °F 52.0 °F 70% 30.14 in 10.0 mi SW 27.6 mph 39.1 mph 0.00 in   Overcast
12:56 PM 63.0 °F 55.0 °F 75% 30.12 in 10.0 mi SW 23.0 mph 35.7 mph N/A   Overcast
1:56 PM 64.0 °F 55.0 °F 73% 30.09 in 10.0 mi SW 25.3 mph 38.0 mph N/A   Overcast
2:56 PM 64.0 °F 55.0 °F 73% 30.08 in 10.0 mi SW 21.9 mph 32.2 mph N/A   Overcast
3:56 PM 64.9 °F 55.0 °F 70% 30.06 in 10.0 mi SW 16.1 mph 25.3 mph N/A   Partly Cloudy
4:56 PM 63.0 °F 55.9 °F 78% 30.06 in 10.0 mi SW 18.4 mph - N/A   Partly Cloudy
5:56 PM 62.1 °F 57.0 °F 84% 30.06 in 10.0 mi SW 16.1 mph 24.2 mph N/A   Clear
6:56 PM 63.0 °F 57.0 °F 81% 30.06 in 10.0 mi SW 16.1 mph - N/A   Clear
7:56 PM 62.1 °F 59.0 °F 90% 30.06 in 10.0 mi SSW 13.8 mph - N/A   Clear
8:56 PM 62.1 °F 59.0 °F 90% 30.04 in 10.0 mi SSW 12.7 mph 19.6 mph N/A   Clear
9:56 PM 62.1 °F 59.0 °F 90% 30.04 in 10.0 mi SSW 12.7 mph - N/A   Clear
10:56 PM 63.0 °F 59.0 °F 87% 30.03 in 10.0 mi SSW 13.8 mph 23.0 mph N/A   Clear
11:56 PM 63.0 °F 60.1 °F 90% 30.01 in 10.0 mi SSW 12.7 mph 20.7 mph N/A   Clear